{"data":{"norad_id":47178,"intl_designator":"2020-088BJ","name":"STARLINK-1912","alt_names":[],"object_type":"PAYLOAD","status":"ACTIVE","operator":null,"country":"US","launch_date":"2020-11-25","launch_site_code":"AFETR","launch_vehicle":null,"mission":null,"orbit_class":"UNKNOWN","rcs_meters":null,"size_class":null,"mass_kg":null,"dimensions":null,"purposes":["comms"],"wikipedia_slug":null,"has_3d_model":false,"image_url":null,"decayed_at":null,"tle_current":{"epoch":"2026-08-31T03:34:04.864224Z","epoch_age_seconds":1780321,"freshness":"OLD","line1":"1 47178U 20088BJ  26243.14866741  .08697201  12320-4  59607-3 0  9994","line2":"2 47178  53.0145 130.0160 0010979 253.9741 106.0096 16.40254154319642","mean_motion":16.40254154,"eccentricity":0.0010979,"inclination_deg":53.0145,"raan_deg":130.016,"arg_perigee_deg":253.9741,"mean_anomaly_deg":106.0096,"bstar":0.00059607,"rev_number":31964,"period_min":87.791272863925,"perigee_km":157.94265980596,"apogee_km":172.31035781861,"semimajor_km":6543.2635088123,"source":"CELESTRAK","updated_at":"2026-08-31T09:02:10.473660Z"}}}